Location: Gaast
(52.9002°N, 5.8891°E)
Time: 02:13:52
(UTC+00:00)

Cosmos 371 Rocket - Pass Details

Date: 18 November 2025
Orbit: 674 x 690 km, 74.0° (Epoch: 13 December)

Event Time Altitude Azimuth Distance (km) Brightness Sun altitude
Rises 18:44:04 0° 214° (SW) 3,037 7.0 -27.7°
Reaches altitude 10° 18:46:23 10° 217° (SW) 2,128 6.2 -28.1°
Enters shadow 18:50:35 58° 264° (W) 801 3.7 -28.7°
